Temperatura - Umidità - Pioggia orarie del 28-01-2020

Dati orari da stazione meteo del 28-01-2020

Nome Stazione Data Ora Temperatura [°C] Umidità [%] Pioggia [mm] Pressione[hPa]
Sant'Anna di Vinadio 27-01-2020 01:00 -1.8 47 0 1014.8
Sant'Anna di Vinadio 27-01-2020 01:10 -1.7 46 0 1014.7
Sant'Anna di Vinadio 27-01-2020 01:20 -1.6 45 0 1014.7
Sant'Anna di Vinadio 27-01-2020 01:30 -1.6 45 0 1014.6
Sant'Anna di Vinadio 27-01-2020 01:40 -1.5 45 0 1014.6
Sant'Anna di Vinadio 27-01-2020 01:50 -1.4 44 0 1014.5
Sant'Anna di Vinadio 27-01-2020 02:00 -1.4 42 0 1014.5
Sant'Anna di Vinadio 27-01-2020 02:10 -1.5 42 0 1014.4
Sant'Anna di Vinadio 27-01-2020 02:20 -1.4 42 0 1014.5
Sant'Anna di Vinadio 27-01-2020 02:30 -1.3 41 0 1014.5
Sant'Anna di Vinadio 27-01-2020 02:40 -1.4 41 0 1014.5
Sant'Anna di Vinadio 27-01-2020 02:50 -1.2 40 0 1014.4
Sant'Anna di Vinadio 27-01-2020 03:00 -1.1 39 0 1014.4
Sant'Anna di Vinadio 27-01-2020 03:10 -1.1 38 0 1014.3
Sant'Anna di Vinadio 27-01-2020 03:20 -1.1 38 0 1014.3
Sant'Anna di Vinadio 27-01-2020 03:30 -1.3 38 0 1014.3
Sant'Anna di Vinadio 27-01-2020 03:40 -1.3 37 0 1014.2
Sant'Anna di Vinadio 27-01-2020 03:50 -1.2 37 0 1014.3
Sant'Anna di Vinadio 27-01-2020 04:00 -1.3 37 0 1014.3
Sant'Anna di Vinadio 27-01-2020 04:10 -1.3 38 0 1014.2
Sant'Anna di Vinadio 27-01-2020 04:20 -1.5 38 0 1014.1
Sant'Anna di Vinadio 27-01-2020 04:30 -1.2 37 0 1014
Sant'Anna di Vinadio 27-01-2020 04:40 -1.2 34 0 1014
Sant'Anna di Vinadio 27-01-2020 04:50 -1.2 36 0 1014.1
Sant'Anna di Vinadio 27-01-2020 05:00 -1.5 36 0 1014
Sant'Anna di Vinadio 27-01-2020 05:10 -1.1 27 0 1014.1
Sant'Anna di Vinadio 27-01-2020 05:20 -1.1 29 0 1014.1
Sant'Anna di Vinadio 27-01-2020 05:30 -1.2 33 0 1014.2
Sant'Anna di Vinadio 27-01-2020 05:40 -1.5 35 0 1014.2
Sant'Anna di Vinadio 27-01-2020 05:50 -1.6 34 0 1014
Sant'Anna di Vinadio 27-01-2020 06:00 -1.5 28 0 1014
Sant'Anna di Vinadio 27-01-2020 06:10 -1.5 27 0 1013.9
Sant'Anna di Vinadio 27-01-2020 06:20 -1.6 26 0 1014.1
Sant'Anna di Vinadio 27-01-2020 06:30 -1.7 26 0 1014.1
Sant'Anna di Vinadio 27-01-2020 06:40 -2 26 0 1014.1
Sant'Anna di Vinadio 27-01-2020 06:50 -1.9 25 0 1014
Sant'Anna di Vinadio 27-01-2020 07:00 -1.7 24 0 1014.1
Sant'Anna di Vinadio 27-01-2020 07:10 -1.6 23 0 1014.1
Sant'Anna di Vinadio 27-01-2020 07:20 -1.5 22 0 1014.1
Sant'Anna di Vinadio 27-01-2020 07:30 -1.5 22 0 1014.2
Sant'Anna di Vinadio 27-01-2020 07:40 -1.3 22 0 1014.2
Sant'Anna di Vinadio 27-01-2020 07:50 -1.2 22 0 1014.3
Sant'Anna di Vinadio 27-01-2020 08:00 -1.4 23 0 1014.3
Sant'Anna di Vinadio 27-01-2020 08:10 -1.4 22 0 1014.3
Sant'Anna di Vinadio 27-01-2020 08:20 -0.6 20 0 1014.2
Sant'Anna di Vinadio 27-01-2020 08:30 -0.4 17 0 1014.3
Sant'Anna di Vinadio 27-01-2020 08:40 -0.2 16 0 1014.3
Sant'Anna di Vinadio 27-01-2020 08:50 0.7 16 0 1014.3
Sant'Anna di Vinadio 27-01-2020 09:00 1.6 15 0 1014.4
Sant'Anna di Vinadio 27-01-2020 09:10 1.7 16 0 1014.4
Sant'Anna di Vinadio 27-01-2020 09:20 2 14 0 1014.4
Sant'Anna di Vinadio 27-01-2020 09:30 2.9 14 0 1014.4
Sant'Anna di Vinadio 27-01-2020 09:40 3.5 13 0 1014.2
Sant'Anna di Vinadio 27-01-2020 09:50 4.3 13 0 1014.3
Sant'Anna di Vinadio 27-01-2020 10:00 3.5 13 0 1014.3
Sant'Anna di Vinadio 27-01-2020 10:10 3.6 14 0 1014.3
Sant'Anna di Vinadio 27-01-2020 10:20 3.6 15 0 1014.2
Sant'Anna di Vinadio 27-01-2020 10:30 3.9 15 0 1014.3
Sant'Anna di Vinadio 27-01-2020 10:40 3.8 17 0 1014.4
Sant'Anna di Vinadio 27-01-2020 10:50 3.4 17 0 1014.4
Sant'Anna di Vinadio 27-01-2020 11:00 3 17 0 1014.5
Sant'Anna di Vinadio 27-01-2020 11:10 3 17 0 1014.6
Sant'Anna di Vinadio 27-01-2020 11:20 2.9 18 0 1014.6
Sant'Anna di Vinadio 27-01-2020 11:30 2.8 19 0 1014.6
Sant'Anna di Vinadio 27-01-2020 11:40 3 19 0 1014.6
Sant'Anna di Vinadio 27-01-2020 11:50 2.9 20 0 1014.6
Sant'Anna di Vinadio 27-01-2020 12:00 2.8 19 0 1014.4
Sant'Anna di Vinadio 27-01-2020 12:10 3 18 0 1014.4
Sant'Anna di Vinadio 27-01-2020 12:20 3 19 0 1014.3
Sant'Anna di Vinadio 27-01-2020 12:30 3 22 0 1014.3
Sant'Anna di Vinadio 27-01-2020 12:40 2.9 22 0 1014.2
Sant'Anna di Vinadio 27-01-2020 12:50 2.7 25 0 1014
Sant'Anna di Vinadio 27-01-2020 13:00 2.6 27 0 1013.9
Sant'Anna di Vinadio 27-01-2020 13:10 2.6 27 0 1013.9
Sant'Anna di Vinadio 27-01-2020 13:20 2.2 28 0 1013.9
Sant'Anna di Vinadio 27-01-2020 13:30 2.2 29 0 1013.9
Sant'Anna di Vinadio 27-01-2020 13:40 2.1 30 0 1013.9
Sant'Anna di Vinadio 27-01-2020 13:50 1.8 31 0 1013.8
Sant'Anna di Vinadio 27-01-2020 14:00 1.7 33 0 1013.7
Sant'Anna di Vinadio 27-01-2020 14:10 1.8 33 0 1013.6
Sant'Anna di Vinadio 27-01-2020 14:20 1.7 34 0 1013.5
Sant'Anna di Vinadio 27-01-2020 14:30 1.5 33 0 1013.4
Sant'Anna di Vinadio 27-01-2020 14:40 1.3 35 0 1013.4
Sant'Anna di Vinadio 27-01-2020 14:50 1.2 37 0 1013.4
Sant'Anna di Vinadio 27-01-2020 15:00 1.1 39 0 1013.4
Sant'Anna di Vinadio 27-01-2020 15:10 1.1 38 0 1013.4
Sant'Anna di Vinadio 27-01-2020 15:20 1 40 0 1013.4
Sant'Anna di Vinadio 27-01-2020 15:30 0.7 40 0 1013.3
Sant'Anna di Vinadio 27-01-2020 15:40 0.7 42 0 1013.2
Sant'Anna di Vinadio 27-01-2020 15:50 0.5 43 0 1013.2
Sant'Anna di Vinadio 27-01-2020 16:00 0.4 43 0 1013.1
Sant'Anna di Vinadio 27-01-2020 16:10 0.3 41 0 1013.1
Sant'Anna di Vinadio 27-01-2020 16:20 0.2 44 0 1013
Sant'Anna di Vinadio 27-01-2020 16:30 0 45 0 1013
Sant'Anna di Vinadio 27-01-2020 16:40 0 44 0 1013
Sant'Anna di Vinadio 27-01-2020 16:50 -0.2 44 0 1012.9
Sant'Anna di Vinadio 27-01-2020 17:00 -0.3 45 0 1012.7
Sant'Anna di Vinadio 27-01-2020 17:10 -0.3 49 0 1012.6
Sant'Anna di Vinadio 27-01-2020 17:20 -0.6 51 0 1012.5
Sant'Anna di Vinadio 27-01-2020 17:30 -0.6 50 0 1012.5
Sant'Anna di Vinadio 27-01-2020 17:40 -0.7 51 0 1012.4
Sant'Anna di Vinadio 27-01-2020 17:50 -0.8 51 0 1012.4
Sant'Anna di Vinadio 27-01-2020 18:00 -0.8 51 0 1012.3
Sant'Anna di Vinadio 27-01-2020 18:10 -0.9 52 0 1012.5
Sant'Anna di Vinadio 27-01-2020 18:20 -1 53 0 1012.5
Sant'Anna di Vinadio 27-01-2020 18:30 -1.2 55 0 1012.6
Sant'Anna di Vinadio 27-01-2020 18:40 -1.3 55 0 1012.6
Sant'Anna di Vinadio 27-01-2020 18:50 -1.4 55 0 1012.5
Sant'Anna di Vinadio 27-01-2020 19:00 -1.3 54 0 1012.4
Sant'Anna di Vinadio 27-01-2020 19:10 -1.2 53 0 1012.3
Sant'Anna di Vinadio 27-01-2020 19:20 -1.1 52 0 1012.2
Sant'Anna di Vinadio 27-01-2020 19:30 -0.7 50 0 1012
Sant'Anna di Vinadio 27-01-2020 19:40 -0.5 45 0 1011.9
Sant'Anna di Vinadio 27-01-2020 19:50 -0.3 44 0 1011.9
Sant'Anna di Vinadio 27-01-2020 20:00 -0.2 45 0 1011.9
Sant'Anna di Vinadio 27-01-2020 20:10 -0.4 49 0 1012.1
Sant'Anna di Vinadio 27-01-2020 20:20 -0.8 50 0 1012.1
Sant'Anna di Vinadio 27-01-2020 20:30 -1.1 51 0 1012
Sant'Anna di Vinadio 27-01-2020 20:40 -0.9 51 0 1012
Sant'Anna di Vinadio 27-01-2020 20:50 -0.9 50 0 1011.8
Sant'Anna di Vinadio 27-01-2020 21:00 -0.7 49 0 1011.6
Sant'Anna di Vinadio 27-01-2020 21:10 -0.9 55 0 1011.9
Sant'Anna di Vinadio 27-01-2020 21:20 -1.5 57 0 1012
Sant'Anna di Vinadio 27-01-2020 21:30 -1.7 60 0 1012
Sant'Anna di Vinadio 27-01-2020 21:40 -1.8 61 0 1012
Sant'Anna di Vinadio 27-01-2020 21:50 -1.7 61 0 1012
Sant'Anna di Vinadio 27-01-2020 22:00 -1.7 62 0 1011.7
Sant'Anna di Vinadio 27-01-2020 22:10 -1.9 64 0 1011.8
Sant'Anna di Vinadio 27-01-2020 22:20 -1.8 65 0 1011.7
Sant'Anna di Vinadio 27-01-2020 22:30 -1.6 65 0 1011.6
Sant'Anna di Vinadio 27-01-2020 22:40 -1.6 65 0 1011.4
Sant'Anna di Vinadio 27-01-2020 22:50 -1.8 66 0 1011.7
Sant'Anna di Vinadio 27-01-2020 23:00 -1.8 67 0 1011.8
Sant'Anna di Vinadio 27-01-2020 23:10 -1.7 66 0 1011.8
Sant'Anna di Vinadio 27-01-2020 23:20 -1.5 66 0 1011.6
Sant'Anna di Vinadio 27-01-2020 23:30 -1.4 66 0 1011.5
Sant'Anna di Vinadio 27-01-2020 23:40 -1.4 65 0 1011.5
Sant'Anna di Vinadio 27-01-2020 23:50 -1.4 67 0 1011.6
Sant'Anna di Vinadio 28-01-2020 00:00 -1.7 70 0 1011.5
Sant'Anna di Vinadio 28-01-2020 00:10 -1.7 71 0 1011.3
Sant'Anna di Vinadio 28-01-2020 00:20 -1.3 71 0 1011.1
Sant'Anna di Vinadio 28-01-2020 00:30 -1.1 69 0.1 1011.1
Sant'Anna di Vinadio 28-01-2020 00:40 -0.9 66 0 1011
Sant'Anna di Vinadio 28-01-2020 00:50 -0.9 66 0 1010.9
Sant'Anna di Vinadio 28-01-2020 01:00 -0.8 65 0 1010.8
Sant'Anna di Vinadio 28-01-2020 01:10 -0.9 66 0 1010.6
Sant'Anna di Vinadio 28-01-2020 01:20 -1 65 0 1010.5
Sant'Anna di Vinadio 28-01-2020 01:30 -0.8 65 0 1010.3
Sant'Anna di Vinadio 28-01-2020 01:40 -0.6 64 0 1010.2
Sant'Anna di Vinadio 28-01-2020 01:50 0 62 0 1009.9
Sant'Anna di Vinadio 28-01-2020 02:00 0.2 60 0 1009.9
Sant'Anna di Vinadio 28-01-2020 02:10 0.3 60 0 1010
Sant'Anna di Vinadio 28-01-2020 02:20 0.4 59 0 1010
Sant'Anna di Vinadio 28-01-2020 02:30 0.3 60 0 1010
Sant'Anna di Vinadio 28-01-2020 02:40 0.3 60 0 1009.8
Sant'Anna di Vinadio 28-01-2020 02:50 0.3 61 0 1009.9
Sant'Anna di Vinadio 28-01-2020 03:00 0.4 61 0 1009.8
Sant'Anna di Vinadio 28-01-2020 03:10 0.4 61 0 1009.8
Sant'Anna di Vinadio 28-01-2020 03:20 0.5 61 0 1009.7
Sant'Anna di Vinadio 28-01-2020 03:30 0.5 60 0 1009.4
Sant'Anna di Vinadio 28-01-2020 03:40 0.5 59 0 1009.4
Sant'Anna di Vinadio 28-01-2020 03:50 0.6 59 0 1009.3
Sant'Anna di Vinadio 28-01-2020 04:00 0.5 59 0 1009
Sant'Anna di Vinadio 28-01-2020 04:10 0.5 58 0 1008.8
Sant'Anna di Vinadio 28-01-2020 04:20 0.7 57 0 1008.9
Sant'Anna di Vinadio 28-01-2020 04:30 0.6 56 0 1008.9
Sant'Anna di Vinadio 28-01-2020 04:40 0.6 56 0 1008.8
Sant'Anna di Vinadio 28-01-2020 04:50 0.7 56 0 1008.9
Sant'Anna di Vinadio 28-01-2020 05:00 0.6 56 0 1008.8
Sant'Anna di Vinadio 28-01-2020 05:10 0.6 56 0 1008.8
Sant'Anna di Vinadio 28-01-2020 05:20 0.6 57 0 1008.9
Sant'Anna di Vinadio 28-01-2020 05:30 0.6 56 0 1008.7
Sant'Anna di Vinadio 28-01-2020 05:40 0.5 56 0 1008.8
Sant'Anna di Vinadio 28-01-2020 05:50 0.5 57 0 1008.5
Sant'Anna di Vinadio 28-01-2020 06:00 0.5 57 0 1008.3
Sant'Anna di Vinadio 28-01-2020 06:10 0.7 56 0 1008.2
Sant'Anna di Vinadio 28-01-2020 06:20 0.7 54 0 1008.3
Sant'Anna di Vinadio 28-01-2020 06:30 0.7 55 0 1008.3
Sant'Anna di Vinadio 28-01-2020 06:40 0.9 54 0 1008.2
Sant'Anna di Vinadio 28-01-2020 06:50 0.9 54 0 1008.2
Sant'Anna di Vinadio 28-01-2020 07:00 0.9 57 0 1008.2
Sant'Anna di Vinadio 28-01-2020 07:10 0.4 62 0 1008.2
Sant'Anna di Vinadio 28-01-2020 07:20 0.1 63 0 1008.2
Sant'Anna di Vinadio 28-01-2020 07:30 0.1 64 0 1008.3
Sant'Anna di Vinadio 28-01-2020 07:40 0 65 0 1008.2
Sant'Anna di Vinadio 28-01-2020 07:50 -0.1 67 0 1008.2
Sant'Anna di Vinadio 28-01-2020 08:00 -0.3 68 0 1008.3
Sant'Anna di Vinadio 28-01-2020 08:10 -0.4 68 0 1008.1
Sant'Anna di Vinadio 28-01-2020 08:20 -0.3 68 0 1008.1
Sant'Anna di Vinadio 28-01-2020 08:30 -0.4 70 0.1 1008.2
Sant'Anna di Vinadio 28-01-2020 08:40 -0.5 70 0.1 1008.3
Sant'Anna di Vinadio 28-01-2020 08:50 -0.6 72 0.2 1008.4
Sant'Anna di Vinadio 28-01-2020 09:00 -0.5 72 0.2 1008.5
Sant'Anna di Vinadio 28-01-2020 09:10 -0.4 71 0.2 1008.4
Sant'Anna di Vinadio 28-01-2020 09:20 -0.4 71 0 1008.3
Sant'Anna di Vinadio 28-01-2020 09:30 -0.4 71 0.1 1008.4
Sant'Anna di Vinadio 28-01-2020 09:40 -0.6 73 0.1 1008.3
Sant'Anna di Vinadio 28-01-2020 09:50 -0.6 74 0.3 1008.2
Sant'Anna di Vinadio 28-01-2020 10:00 -0.6 75 0.4 1008.1
Sant'Anna di Vinadio 28-01-2020 10:10 -0.4 74 0.2 1008.4
Sant'Anna di Vinadio 28-01-2020 10:20 -0.4 73 0.2 1008.5
Sant'Anna di Vinadio 28-01-2020 10:30 -0.5 74 0.2 1008.6
Sant'Anna di Vinadio 28-01-2020 10:40 -0.6 75 0.3 1008.9
Sant'Anna di Vinadio 28-01-2020 10:50 -0.6 75 0.2 1008.9
Sant'Anna di Vinadio 28-01-2020 11:00 -0.6 76 0.3 1008.8
Sant'Anna di Vinadio 28-01-2020 11:10 -0.7 77 0.2 1008.8
Sant'Anna di Vinadio 28-01-2020 11:20 -0.3 76 0 1008.5
Sant'Anna di Vinadio 28-01-2020 11:30 0.4 69 0.1 1008.4
Sant'Anna di Vinadio 28-01-2020 11:40 0.5 60 0 1008.6
Sant'Anna di Vinadio 28-01-2020 11:50 0.3 59 0.1 1008.3
Sant'Anna di Vinadio 28-01-2020 12:00 -0.2 65 0 1008.4
Sant'Anna di Vinadio 28-01-2020 12:10 0.2 63 0 1008.3
Sant'Anna di Vinadio 28-01-2020 12:20 0.3 54 0 1008.3
Sant'Anna di Vinadio 28-01-2020 12:30 0.6 47 0 1008.3
Sant'Anna di Vinadio 28-01-2020 12:40 0.7 42 0.1 1008.3
Sant'Anna di Vinadio 28-01-2020 12:50 0.7 41 0 1008.4
Sant'Anna di Vinadio 28-01-2020 13:00 0.6 38 0 1008.1
Sant'Anna di Vinadio 28-01-2020 13:10 0.6 36 0 1008.3
Sant'Anna di Vinadio 28-01-2020 13:20 0.4 44 0 1007.9
Sant'Anna di Vinadio 28-01-2020 13:30 -0.1 38 0 1007.7
Sant'Anna di Vinadio 28-01-2020 13:40 0.1 36 0 1007.7
Sant'Anna di Vinadio 28-01-2020 13:50 0.3 42 0 1007.4
Sant'Anna di Vinadio 28-01-2020 14:00 0.1 37 0 1007.3
Sant'Anna di Vinadio 28-01-2020 14:10 0.1 39 0 1006.8
Sant'Anna di Vinadio 28-01-2020 14:20 0.1 38 0 1006.9
Sant'Anna di Vinadio 28-01-2020 14:30 0.1 40 0 1006.8
Sant'Anna di Vinadio 28-01-2020 14:40 0.1 40 0 1006.7
Sant'Anna di Vinadio 28-01-2020 14:50 0.1 38 0 1006.7
Sant'Anna di Vinadio 28-01-2020 15:00 -0.1 45 0 1006.8
Sant'Anna di Vinadio 28-01-2020 15:10 -0.1 41 0 1007.1
Sant'Anna di Vinadio 28-01-2020 15:20 -0.1 41 0 1007.1
Sant'Anna di Vinadio 28-01-2020 15:30 -0.5 42 0 1007.4
Sant'Anna di Vinadio 28-01-2020 15:40 -0.6 43 0 1007.2
Sant'Anna di Vinadio 28-01-2020 15:50 -0.6 44 0 1006.8
Sant'Anna di Vinadio 28-01-2020 16:00 -0.8 46 0 1006.9
Sant'Anna di Vinadio 28-01-2020 16:10 -0.9 46 0 1007
Sant'Anna di Vinadio 28-01-2020 16:20 -0.6 42 0 1006.7
Sant'Anna di Vinadio 28-01-2020 16:30 -0.6 39 0 1006.4
Sant'Anna di Vinadio 28-01-2020 16:40 -0.7 43 0 1006.6
Sant'Anna di Vinadio 28-01-2020 16:50 -0.5 39 0 1006.8
Sant'Anna di Vinadio 28-01-2020 17:00 -0.7 41 0 1006.6
Sant'Anna di Vinadio 28-01-2020 17:10 -0.8 43 0 1006.3
Sant'Anna di Vinadio 28-01-2020 17:20 -0.4 38 0 1006.4
Sant'Anna di Vinadio 28-01-2020 17:30 -0.5 38 0 1006.3
Sant'Anna di Vinadio 28-01-2020 17:40 -0.7 38 0 1006.4
Sant'Anna di Vinadio 28-01-2020 17:50 -0.7 40 0 1006.6
Sant'Anna di Vinadio 28-01-2020 18:00 -0.8 41 0 1006.3
Sant'Anna di Vinadio 28-01-2020 18:10 -0.8 40 0 1006.5
Sant'Anna di Vinadio 28-01-2020 18:20 -1.1 43 0 1006.5
Sant'Anna di Vinadio 28-01-2020 18:30 -1.3 43 0 1006.8
Sant'Anna di Vinadio 28-01-2020 18:40 -1.3 44 0 1006.8
Sant'Anna di Vinadio 28-01-2020 18:50 -1.3 43 0 1006.8
Sant'Anna di Vinadio 28-01-2020 19:00 -1 42 0 1006.9
Sant'Anna di Vinadio 28-01-2020 19:10 -1.1 45 0 1007.1
Sant'Anna di Vinadio 28-01-2020 19:20 -1.2 43 0 1007
Sant'Anna di Vinadio 28-01-2020 19:30 -1 44 0 1006.9
Sant'Anna di Vinadio 28-01-2020 19:40 -1 40 0 1006.9
Sant'Anna di Vinadio 28-01-2020 19:50 -0.8 39 0 1007
Sant'Anna di Vinadio 28-01-2020 20:00 -0.7 38 0 1007
Sant'Anna di Vinadio 28-01-2020 20:10 -0.8 42 0 1007.2
Sant'Anna di Vinadio 28-01-2020 20:20 -0.9 38 0 1007.9
Sant'Anna di Vinadio 28-01-2020 20:30 -0.9 45 0 1007.6
Sant'Anna di Vinadio 28-01-2020 20:40 -1.1 43 0 1008.1
Sant'Anna di Vinadio 28-01-2020 20:50 -1.1 40 0 1007.9
Sant'Anna di Vinadio 28-01-2020 21:00 -1.3 40 0 1007.9
Sant'Anna di Vinadio 28-01-2020 21:10 -1.3 40 0 1007.9

Riassuntivo giornaliero del 28-01-2020